#timestamp,LO_Frequency,Hit,StdDev 
1589105795.6,286046989.0,P
1589105815.4,286046991.2,P
1589105835.2,286046991.3,P
1589105855.1,286046991.5,Y
1589105856.0,286046991.5,P
1589105875.8,286046998.6,N
1589105895.7,286046998.3,N
1589105915.5,286046996.6,N
1589105935.3,286046997.3,N
1589105955.2,286046997.2,N
1589105975.0,286046994.9,N
1589105975.9,286046994.9,N
1589105995.7,286046997.0,N
1589106015.6,286046997.1,N
1589106035.4,286046996.9,N
1589106055.3,286046998.5,N
1589106075.1,286047001.2,N
1589106076.0,286047001.2,N
1589106095.8,286047000.9,N
1589106115.7,286046998.5,N
1589106135.5,286047001.1,N
1589106155.4,286046998.9,N
1589106175.2,286046995.1,N
1589106195.0,286046994.3,N
1589106195.9,286046994.3,N
1589106215.8,286046992.8,N
1589106235.6,286046993.1,N
1589106255.4,286046991.0,Y
1589106275.3,286046993.8,P
1589106295.1,286046992.1,P
1589106315.9,286046994.8,N
1589106335.7,286046992.5,Y
1589106355.5,286046996.6,P
1589106375.4,286046997.0,N
1589106395.2,286046997.6,N
1589106415.0,286046997.4,N
1589106416.0,286046997.4,N
1589106435.8,286046994.9,Y
1589106455.6,286046998.6,P
1589106475.5,286047000.8,N
1589106495.3,286047000.7,N
1589106515.1,286047000.7,N
1589106535.9,286047001.2,N
1589106555.7,286046998.2,N
1589106575.6,286046998.2,N
1589106595.4,286046998.6,N
1589106615.2,286046999.4,N
1589106635.1,286046996.7,N
1589106636.0,286046996.7,N
1589106655.8,286046996.9,N
1589106675.6,286046999.4,N
1589106695.5,286046997.3,N
1589106715.3,286046997.2,N
1589106735.2,286046996.8,N
1589106755.9,286046997.1,N
1589106775.7,286046997.8,N
1589106795.6,286046997.9,N
1589106815.4,286046997.5,N
1589106835.2,286046995.1,Y
1589106855.1,286046996.8,P
1589106856.0,286046996.8,P
1589106875.8,286046999.5,N
1589106895.7,286046996.6,Y
1589106915.5,286047000.4,P
1589106935.3,286047000.0,N
1589106955.2,286047000.0,N
1589106975.0,286047000.3,N
1589106975.9,286047000.3,N
1589106995.8,286046999.9,N
1589107015.6,286047001.2,N
1589107035.4,286046998.7,N
1589107055.3,286046999.6,N
1589107075.1,286046999.1,N
1589107095.8,286046999.6,N
1589107115.7,286046997.4,Y
1589107135.5,286046997.0,P
1589107155.4,286046997.1,N
1589107175.2,286046997.4,N
1589107195.0,286046998.0,N
1589107195.9,286046998.0,N
1589107215.8,286046995.0,Y
1589107235.6,286046998.8,P
1589107255.4,286046999.6,N
1589107275.3,286046999.3,N
1589107295.1,286046999.6,N
1589107315.9,286046998.8,N
1589107335.7,286046999.1,N
1589107355.5,286046999.1,N
1589107375.4,286046999.2,N
1589107395.2,286046999.6,N
1589107415.0,286046997.2,Y
1589107416.0,286046997.2,P
1589107435.8,286046999.3,N
1589107455.6,286046999.4,N
1589107475.5,286046999.6,N
1589107495.3,286046997.0,Y
1589107515.1,286046998.7,P
1589107535.9,286046998.7,P
1589107555.7,286046999.0,P
1589107575.6,286046999.0,Y
1589107595.4,286047001.2,P
1589107615.2,286046998.7,N
1589107635.1,286046998.2,N
1589107636.0,286046998.2,N
1589107655.8,286046999.0,N
1589107675.6,286046999.2,N
1589107695.5,286046999.4,N
1589107715.3,286046999.4,N
1589107735.2,286046996.8,Y
1589107755.0,286046999.1,P
1589107755.9,286046999.1,P
1589107775.7,286046996.8,P
1589107795.6,286046996.9,Y
1589107815.4,286046999.2,P
1589107835.3,286046999.5,N
1589107855.1,286046998.4,P
1589107856.0,286046998.4,Y
1589107875.8,286047000.9,P
1589107895.7,286047000.1,N
1589107915.5,286047000.4,N
1589107935.3,286047000.8,N
1589107955.2,286046998.1,N
1589107975.0,286046998.5,N
1589107975.9,286046998.5,N
1589107995.8,286046998.7,N
1589108015.6,286046999.0,N
1589108035.4,286046999.2,N
1589108055.3,286046998.9,N
1589108075.1,286046998.9,N
1589108095.9,286046999.2,N
1589108115.7,286046999.6,N
1589108135.5,286046996.6,Y
1589108155.4,286046997.2,P
1589108175.2,286046997.1,N
1589108195.0,286046997.4,N
1589108195.9,286046997.4,N
1589108215.8,286046997.6,N
1589108235.6,286046994.9,Y
1589108255.5,286046998.4,P
1589108275.3,286046998.4,P
1589108295.1,286046998.7,P
1589108315.9,286046996.5,Y
1589108335.7,286047001.2,P
1589108355.6,286046999.3,N
1589108375.4,286046996.5,N
1589108395.2,286046999.2,N
